📊 Raw Sensor Data

Showing records 39626 to 39650 of 84,948 total

ID Distance (ft) Battery V Battery A Int Temp (°F) Int Humid (%) Ext Temp (°F) Solar V RSSI SNR Time Stamp
45335 15.3 3.85 0 79 43 80 5.10 -69 7 07/04/2025 11:15 AM
45334 15.3 3.85 0 79 43 82 5.10 -66 8 07/04/2025 11:00 AM
45333 15.3 3.85 0 79 43 80 5.10 -66 8 07/04/2025 10:45 AM
45332 15.3 4.09 0 78 43 80 5.10 -67 7 07/04/2025 10:30 AM
45331 15.3 4.03 0 76 43 80 5.10 -67 7 07/04/2025 10:15 AM
45330 15.3 4.07 0 76 43 79 5.10 -68 7 07/04/2025 10:00 AM
45329 15.3 3.85 0 74 43 77 5.10 -67 7 07/04/2025 09:45 AM
45328 15.3 3.85 0 73 43 77 5.10 -68 7 07/04/2025 09:30 AM
45327 15.3 3.85 0 72 44 76 5.10 -68 8 07/04/2025 09:15 AM
45326 15.3 3.85 0 70 44 74 5.10 -69 8 07/04/2025 09:00 AM
45325 15.4 3.85 0 69 44 74 5.10 -68 7 07/04/2025 08:45 AM
45324 15.4 3.85 0 68 43 72 5.10 -70 8 07/04/2025 08:30 AM
45323 15.4 3.85 0 67 43 72 5.10 -69 8 07/04/2025 08:15 AM
45322 15.4 3.85 0 66 43 71 5.10 -68 8 07/04/2025 08:00 AM
45321 15.3 3.84 0 65 43 70 5.10 -67 8 07/04/2025 07:45 AM
45320 15.3 3.97 11 63 42 67 4.50 -68 8 07/04/2025 07:30 AM
45319 15.3 4.01 7 62 42 67 4.50 -68 8 07/04/2025 07:15 AM
45318 15.3 3.93 6 60 42 65 4.50 -67 8 07/04/2025 07:00 AM
45317 15.3 3.90 0 59 42 63 4.50 -68 8 07/04/2025 06:45 AM
45316 15.2 3.71 0 57 42 61 4.50 -68 8 07/04/2025 06:30 AM
45315 15.2 3.68 0 55 42 59 4.50 -68 8 07/04/2025 06:15 AM
45314 15.2 3.66 -9 54 42 57 4.50 -66 9 07/04/2025 06:00 AM
45313 15.2 3.68 -6 54 43 56 2.10 -69 8 07/04/2025 05:45 AM
45312 15.2 3.68 -5 53 43 55 0.40 -67 9 07/04/2025 05:30 AM
45311 15.2 3.68 -5 54 43 56 0.00 -68 8 07/04/2025 05:15 AM